Barter Island, AK

10:48 AM AKDT on May 25, 2017 (GMT -0800)
Barter Island LRRS

Weather History for PABA - March, 2014

Change the Weather History Date:

Friday, March 21, 2014

  Actual Average Record
Temperature  
Mean Temperature 2 °F -  
Max Temperature 12 °F 0 °F 30 °F (1998)
Min Temperature -11 °F -13 °F -33 °F (2008)
Degree Days  
Heating Degree Days 62    
Moisture  
Dew Point -1 °F    
Average Humidity 82    
Maximum Humidity 88    
Minimum Humidity 77    
Precipitation  
Precipitation 0.00 in - - ()
Sea Level Pressure  
Sea Level Pressure 30.62 in    
Wind  
Wind Speed 11 mph (West)    
Max Wind Speed 21 mph    
Max Gust Speed -    
Visibility 10 miles    
Events      
Averages and records for this station are not official NWS values.
T = Trace of Precipitation, MM = Missing Value Source: NWS Daily Summary

Daily Weather History Graph

Daily Weather History Graph

Search for Another Location

Airport or City:

Trip Planner

Search our weather history database for the weather conditions in past years. The results will help you decide how hot, cold, wet, or windy it might be!

Date:

Astronomy

Mar. 21, 2014 Rise Set
Actual Time 7:27 AM AKDT 7:57 PM AKDT
Civil Twilight 6:25 AM AKDT 8:59 PM AKDT
Nautical Twilight 5:05 AM AKDT 10:20 PM AKDT
Astronomical Twilight 3:11 AM AKDT 12:21 AM AKDT
Moon 3:20 AM AKDT (3/21) 7:25 AM AKDT (3/21)
Length of Visible Light 14h 34m
Length of Day
12h 30m
Waning Gibbous, 74% of the Moon is Illuminated
Mar 21
Waning Gibbous
Mar 23
Last Quarter
Mar 30
New
Apr 7
First Quarter
Apr 14
Full

Hourly Weather History & Observations

Time (AKDT) Temp. Windchill Dew Point Humidity Pressure Visibility Wind Dir Wind Speed Gust Speed Precip Events Conditions
12:01 AM -9.9 °F -26.3 °F -13.0 °F 86% 30.67 in 10.0 mi ESE 8.1 mph - N/A   Clear
1:01 AM -9.0 °F -25.2 °F -13.0 °F 83% 30.66 in 10.0 mi East 8.1 mph - N/A   Clear
2:01 AM -9.0 °F -25.2 °F -13.0 °F 83% 30.65 in 10.0 mi East 8.1 mph - N/A   Clear
3:01 AM -9.9 °F -24.9 °F -14.1 °F 82% 30.63 in 10.0 mi East 6.9 mph - N/A   Clear
4:01 AM -9.0 °F -25.2 °F -13.0 °F 83% 30.62 in 10.0 mi East 8.1 mph - N/A   Clear
5:01 AM -9.9 °F -26.3 °F -13.0 °F 86% 30.62 in 10.0 mi East 8.1 mph - N/A   Clear
6:01 AM -11.0 °F -26.2 °F -15.0 °F 83% 30.61 in 10.0 mi SSE 6.9 mph - N/A   Clear
7:01 AM -7.1 °F - -9.9 °F 87% 30.61 in 10.0 mi Calm Calm - N/A   Clear
8:01 AM -6.0 °F -22.6 °F -9.0 °F 87% 30.60 in 10.0 mi WSW 9.2 mph - N/A   Clear
9:01 AM -0.0 °F -18.0 °F -2.9 °F 88% 30.60 in 10.0 mi WSW 12.7 mph - N/A   Clear
10:01 AM -0.0 °F - -4.0 °F 83% 30.59 in 10.0 mi Calm Calm - N/A   Clear
11:01 AM 7.0 °F -10.4 °F 1.0 °F 77% 30.59 in 10.0 mi West 15.0 mph - N/A   Clear
12:01 PM 9.0 °F -10.0 °F 3.9 °F 80% 30.60 in 10.0 mi West 19.6 mph - N/A   Clear
1:01 PM 10.9 °F -7.5 °F 6.1 °F 81% 30.61 in 10.0 mi West 19.6 mph - 0.00 in   Clear
2:01 PM 14.0 °F -2.0 °F 9.0 °F 80% 30.61 in 10.0 mi West 16.1 mph - N/A   Clear
3:01 PM 16.0 °F -0.4 °F 10.0 °F 77% 30.61 in 10.0 mi West 18.4 mph - N/A   Partly Cloudy
4:01 PM 16.0 °F -1.3 °F 10.0 °F 77% 30.60 in 10.0 mi West 20.7 mph - N/A   Partly Cloudy
5:01 PM 16.0 °F 0.6 °F 10.9 °F 81% 30.60 in 10.0 mi West 16.1 mph - N/A   Overcast
6:01 PM 15.1 °F -1.6 °F 10.0 °F 80% 30.61 in 10.0 mi West 18.4 mph - N/A   Partly Cloudy
7:01 PM 14.0 °F -2.0 °F 9.0 °F 80% 30.61 in 10.0 mi West 16.1 mph - N/A   Clear
8:01 PM 14.0 °F -3.4 °F 9.0 °F 80% 30.62 in 10.0 mi WNW 19.6 mph - N/A   Clear
9:01 PM 12.9 °F -4.9 °F 8.1 °F 81% 30.62 in 10.0 mi WNW 19.6 mph - N/A   Partly Cloudy
10:01 PM 10.9 °F -7.0 °F 7.0 °F 84% 30.62 in 10.0 mi West 18.4 mph - N/A   Clear
11:01 PM 12.0 °F -5.6 °F 8.1 °F 84% 30.62 in 10.0 mi WNW 18.4 mph - N/A   Mostly Cloudy